User: anonymous   Login
Location: Caltech
(34.1382°N, 118.1253°W)
Time: 19:47:38
(UTC-07:00)
Language:

Spot 4 Rocket - Orbit

View from above orbital plane
View from above orbital plane
View from above satellite
View from above satellite

Ground track
Ground track

The orbit data is extracted from the following two-line orbital elements,

1 25261U 98017B   16146.47501765  .00000114  00000-0  56856-4 0  9994
2 25261  98.4997  93.6575 0003824 140.8118 219.3344 14.33477829949465
Epoch (UTC): 25 May 2016 11:24:01
Eccentricity: 0.0003824
inclination: 98.4997°
perigee height: 777 km
apogee height: 783 km
right ascension of ascending node: 93.6575°
argument of perigee: 140.8118°
revolutions per day: 14.33477829
mean anomaly at epoch: 219.3344°
orbit number at epoch: 94946

The dashed part of the orbit path shows where the satellite is in the earth's shadow,  

DLR